Home   Weather   Medan   Past weeks

Flag for Indonesia Past Weather in Medan, North Sumatra, Indonesia — Yesterday and Last 2 Weeks

Now
84 °F

Partly sunny.


Feels Like: 94 °F
Forecast: 78 / 89 °F
Wind: 5 mph from Northwest

Location: Medan / Polonia

Current Time: Aug 31, 2016 at 1:20:22 PM

Latest Report: Aug 31, 2016 at 12:30 PM


Visibility: 5 mi

Pressure: 29.89 "Hg

Humidity: 79%

Dew Point: 77 °F

Location of MedanLocation

Past Weather in Medan — Graph

°F

Medan Temperature Yesterday

Maximum temperature yesterday: 88 °F (at 2:30 PM)
Minimum temperature yesterday: 75 °F (at 4:00 AM)
Average temperature yesterday: 81 °F

High & Low Weather Summary for the Past Weeks

 TemperatureHumidityPressure
High91 °F (Aug 16, 12:00 PM)100% (Aug 16, 8:00 PM)29.92 "Hg (Aug 16, 8:00 PM)
Low75 °F (Aug 17, 1:00 AM)56% (Aug 18, 1:30 PM)29.62 "Hg (Aug 23, 4:30 PM)
Average82 °F84%29.77 "Hg
* Reported Aug 16 12:00 PM — Aug 31 12:00 PM, Medan, Weather by CustomWeather, © 2016

Note: Actual official high and low records may vary slightly from our data, if they occured in-between our weather recording intervals... More about our weather records

Advertising

Medan Weather History for the Previous 24 Hours

Scroll right to see more
 ConditionsComfort  
Time TempWeatherWind HumidityBarometerVisibility
12:00 PM
Wed, Aug 31
84 °FScattered clouds.3 mph74%29.89 "Hg4 mi
11:30 AM84 °FScattered clouds.5 mph79%29.89 "Hg4 mi
11:00 AM82 °FScattered clouds.No wind84%29.92 "Hg4 mi
10:30 AM82 °FScattered clouds.No wind84%29.92 "Hg3 mi
10:00 AM81 °FFog.No wind89%29.89 "Hg2 mi
9:30 AM79 °FFog.No wind94%29.89 "Hg2 mi
9:00 AM77 °FLight rain. Partly sunny.5 mph100%29.92 "Hg1 mi
8:30 AM77 °FRain. Partly sunny.3 mph100%29.89 "Hg1 mi
8:00 AM77 °FThunderstorms. Partly sunny.3 mph94%29.86 "Hg1 mi
7:30 AM77 °FThunderstorms. More clouds than sun.5 mph100%29.86 "Hg1 mi
7:00 AM77 °FThunderstorms. More clouds than sun.3 mph100%29.86 "Hg1 mi
6:30 AM77 °FThunderstorms. More clouds than sun.3 mph100%29.83 "Hg1 mi
6:00 AM77 °FThunderstorms. Partly cloudy.No wind100%29.80 "Hg2 mi
5:30 AM77 °FThunderstorms. Mostly cloudy.3 mph100%29.80 "Hg1 mi
2:00 AM79 °FFog.No wind94%29.83 "Hg1 mi
1:30 AM79 °FPassing clouds.3 mph94%29.83 "Hg1 mi
1:00 AM79 °FPassing clouds.5 mph94%29.86 "Hg2 mi
12:30 AM81 °FPassing clouds.6 mph89%29.86 "Hg3 mi
12:00 AM81 °FPassing clouds.3 mph89%29.86 "Hg4 mi
11:30 PM
Tue, Aug 30
81 °FPassing clouds.3 mph89%29.89 "Hg4 mi
11:00 PM81 °FPassing clouds.6 mph89%29.89 "Hg4 mi
10:00 PM81 °FPassing clouds.6 mph89%29.86 "Hg4 mi
9:30 PM81 °FPassing clouds.6 mph89%29.86 "Hg4 mi
9:00 PM81 °FPassing clouds.6 mph89%29.83 "Hg3 mi
8:30 PM81 °FPassing clouds.5 mph89%29.83 "Hg3 mi
8:00 PM81 °FPassing clouds.6 mph89%29.80 "Hg2 mi
7:30 PM82 °FPassing clouds.5 mph84%29.80 "Hg3 mi
7:00 PM82 °FPassing clouds.3 mph84%29.77 "Hg3 mi
6:30 PM82 °FScattered clouds.5 mph84%29.77 "Hg4 mi
6:00 PM84 °FBroken clouds.7 mph74%29.74 "Hg4 mi
5:30 PM84 °FScattered clouds.9 mph74%29.74 "Hg4 mi
5:00 PM84 °FScattered clouds.10 mph79%29.74 "Hg5 mi
4:30 PM86 °FScattered clouds.9 mph75%29.74 "Hg5 mi
4:00 PM86 °FScattered clouds.10 mph75%29.74 "Hg5 mi
3:30 PM86 °FScattered clouds.12 mph75%29.74 "Hg5 mi
3:00 PM86 °FBroken clouds.10 mph70%29.74 "Hg5 mi
2:30 PM88 °FBroken clouds.3 mph66%29.74 "Hg5 mi
2:00 PM86 °FBroken clouds.5 mph75%29.74 "Hg5 mi
1:30 PM86 °FBroken clouds.6 mph75%29.77 "Hg5 mi
1:00 PM86 °FScattered clouds.8 mph70%29.77 "Hg5 mi
Weather by CustomWeather, © 2016

See weather overviewHow to use our weather pages